Date String (YYYY-MM-DD hh:mm:ss) UTC,Instrument flags,Ambient pressure (hPa),Sample flow (lpm),Bypass flow (lpm),Sample temperature (°C),Ambient temperature (°C),ASC tube jacket temperature (°C),LED temperature (°C),Box temperature (°C),Sample RH (%),Span deviation,Mass concentration (μg/m³),Mass concentration (μg/m³),Mass concentration (μg/m³)
DateTimeUTC,F1_M11,P_M11,Q1_M11,Q2_M11,T1_M11,T2_M11,T3_M11,T4_M11,T5_M11,U1_M11,ZSPAN_M11,X0_M11,X2_M11,X1_M11
2022-02-25 00:00:00,,0823.7,4.99,0.00,22.6,21.8,00.0,31.5,24.4,06.1,0001.1,0012.85,0008.08,0007.36
2022-02-25 00:01:00,,0823.6,5.01,0.00,22.6,21.8,00.0,31.5,24.4,06.1,0001.2,0012.72,0008.06,0007.35
2022-02-25 00:02:00,,0823.6,5.01,0.00,22.6,21.8,00.0,31.5,24.4,06.0,0001.6,0012.78,0008.04,0007.33
2022-02-25 00:03:00,,0823.7,5.00,0.00,22.6,21.8,00.0,31.5,24.4,06.1,0001.3,0012.51,0008.05,0007.32
2022-02-25 00:04:00,,0823.7,5.00,0.00,22.6,21.8,00.0,31.5,24.4,06.0,0001.3,0012.30,0008.03,0007.30
2022-02-25 00:05:00,,0823.7,4.99,0.00,22.6,21.8,00.0,31.5,24.4,05.9,0001.3,0012.39,0007.99,0007.27
2022-02-25 00:06:00,,0823.8,5.00,0.00,22.6,21.8,00.0,31.5,24.4,05.8,0001.1,0012.26,0007.93,0007.23
2022-02-25 00:07:00,,0823.9,4.99,0.00,22.6,21.9,00.0,31.5,24.4,05.9,0001.4,0012.61,0007.93,0007.21
2022-02-25 00:08:00,,0824.0,5.01,0.00,22.7,22.5,00.0,31.6,24.5,05.8,0001.3,0012.31,0007.90,0007.18
2022-02-25 00:09:00,,0824.1,5.00,0.00,22.8,23.1,00.0,31.6,24.8,05.9,0000.6,0012.18,0007.87,0007.17
2022-02-25 00:10:00,,0824.1,5.00,0.00,22.9,23.1,00.0,31.6,24.9,05.8,0000.3,0012.23,0007.91,0007.18
2022-02-25 00:11:00,,0824.0,4.99,0.00,22.9,23.0,00.0,31.7,24.9,05.8,0000.3,0012.78,0007.94,0007.16
2022-02-25 00:12:00,,0824.0,5.01,0.00,22.9,22.8,00.0,31.7,24.9,05.9,0000.2,0012.82,0007.96,0007.16
2022-02-25 00:13:00,,0824.1,5.01,0.00,22.9,22.7,00.0,31.7,24.8,05.9,-000.4,0012.94,0007.95,0007.17
2022-02-25 00:14:00,,0824.1,5.00,0.00,22.9,22.6,00.0,31.7,24.8,05.9,-000.0,0013.35,0007.93,0007.17
2022-02-25 00:15:00,,0824.1,5.00,0.00,22.9,22.5,00.0,31.7,24.8,05.9,-000.1,0013.29,0007.90,0007.17
2022-02-25 00:16:00,,0824.1,4.99,0.00,22.9,22.4,00.0,31.7,24.8,05.9,0000.0,0013.23,0007.92,0007.20
2022-02-25 00:17:00,,0824.1,5.00,0.00,22.9,22.4,00.0,31.7,24.8,05.8,0000.3,0013.35,0007.95,0007.23
2022-02-25 00:18:00,,0824.1,5.00,0.00,22.9,22.3,00.0,31.7,24.8,05.8,0000.1,0013.11,0007.97,0007.23
2022-02-25 00:19:00,,0824.1,5.00,0.00,22.9,22.3,00.0,31.8,24.7,05.8,0000.1,0013.05,0007.96,0007.24
2022-02-25 00:20:00,,0824.2,4.99,0.00,22.9,22.2,00.0,31.8,24.7,05.9,0000.3,0012.96,0007.94,0007.23
2022-02-25 00:21:00,,0824.3,4.99,0.00,22.9,22.2,00.0,31.8,24.7,05.9,0000.1,0012.92,0007.91,0007.23
2022-02-25 00:22:00,,0824.3,4.99,0.00,22.9,22.2,00.0,31.8,24.7,05.8,0000.2,0012.76,0007.89,0007.23
2022-02-25 00:23:00,,0824.3,5.01,0.00,22.9,22.1,00.0,31.8,24.7,05.9,0000.3,0012.87,0007.94,0007.26
2022-02-25 00:24:00,,0824.3,4.99,0.00,22.8,22.1,00.0,31.8,24.6,05.9,0000.4,0012.66,0007.90,0007.26
2022-02-25 00:25:00,,0824.2,4.99,0.00,22.8,22.1,00.0,31.8,24.6,05.9,0000.4,0012.08,0007.92,0007.26
2022-02-25 00:26:00,,0824.2,5.00,0.00,22.8,22.1,00.0,31.8,24.6,05.8,0000.1,0012.17,0007.96,0007.27
2022-02-25 00:27:00,,0824.2,5.00,0.00,22.8,22.0,00.0,31.8,24.6,05.8,-000.0,0012.03,0007.95,0007.27
2022-02-25 00:28:00,,0824.3,5.00,0.00,22.8,22.0,00.0,31.8,24.6,05.8,-000.1,0012.01,0007.99,0007.28
2022-02-25 00:29:00,,0824.3,5.00,0.00,22.8,22.0,00.0,31.7,24.6,05.9,-000.1,0012.21,0008.01,0007.30
2022-02-25 00:30:00,,0824.3,5.00,0.00,22.8,22.0,00.0,31.7,24.6,05.9,-000.0,0012.19,0008.04,0007.34
2022-02-25 00:31:00,,0824.3,5.00,0.00,22.8,22.0,00.0,31.7,24.6,05.8,-000.2,0012.29,0008.08,0007.36
2022-02-25 00:32:00,,0824.3,4.99,0.00,22.8,21.9,00.0,31.7,24.6,05.8,-000.1,0012.29,0008.09,0007.37
2022-02-25 00:33:00,,0824.3,5.00,0.00,22.7,21.9,00.0,31.7,24.5,05.7,-000.3,0012.01,0008.07,0007.36
2022-02-25 00:34:00,,0824.3,4.99,0.00,22.7,21.9,00.0,31.7,24.5,05.8,-000.4,0011.91,0008.04,0007.35
2022-02-25 00:35:00,,0824.3,5.01,0.00,22.7,21.9,00.0,31.7,24.5,05.8,-000.2,0012.15,0008.06,0007.33
2022-02-25 00:36:00,,0824.3,5.00,0.00,22.7,21.9,00.0,31.7,24.5,05.7,-000.5,0012.57,0008.09,0007.32
2022-02-25 00:37:00,,0824.3,4.99,0.00,22.7,21.8,00.0,31.7,24.5,05.8,-000.6,0012.48,0008.06,0007.31
2022-02-25 00:38:00,,0824.3,5.00,0.00,22.7,21.8,00.0,31.7,24.5,05.8,-000.8,0012.94,0008.04,0007.29
2022-02-25 00:39:00,,0824.3,5.00,0.00,22.7,21.8,00.0,31.7,24.5,05.8,-000.6,0013.36,0008.02,0007.27
2022-02-25 00:40:00,,0824.3,5.02,0.00,22.7,21.8,00.0,31.7,24.4,05.8,-000.3,0013.01,0007.98,0007.24
2022-02-25 00:41:00,,0824.4,4.99,0.00,22.7,21.8,00.0,31.7,24.4,05.8,-000.2,0013.59,0007.95,0007.20
2022-02-25 00:42:00,,0824.4,5.00,0.00,22.7,22.1,00.0,31.7,24.4,05.8,0000.2,0013.61,0007.93,0007.18
2022-02-25 00:43:00,,0824.5,5.01,0.00,22.8,22.7,00.0,31.7,24.6,05.7,0000.6,0013.59,0007.91,0007.16
2022-02-25 00:44:00,,0824.5,5.01,0.00,22.9,23.2,00.0,31.8,24.9,05.7,0001.2,0013.63,0007.94,0007.17
2022-02-25 00:45:00,,0824.6,4.99,0.00,22.9,23.1,00.0,31.8,24.9,05.6,0001.5,0013.69,0007.94,0007.16
2022-02-25 00:46:00,,0824.6,5.01,0.00,23.0,22.9,00.0,31.8,24.9,05.6,0001.4,0013.84,0007.95,0007.16
2022-02-25 00:47:00,,0824.6,5.00,0.00,23.0,22.7,00.0,31.8,24.9,05.6,0001.8,0013.59,0007.94,0007.17
2022-02-25 00:48:00,,0824.5,5.00,0.00,23.0,22.6,00.0,31.8,24.8,05.6,0002.0,0013.55,0007.94,0007.17
2022-02-25 00:49:00,,0824.5,5.00,0.00,23.0,22.5,00.0,31.8,24.8,05.6,0002.2,0013.18,0007.97,0007.17
2022-02-25 00:50:00,,0824.5,5.00,0.00,22.9,22.4,00.0,31.8,24.8,05.6,0002.0,0013.23,0007.95,0007.17
2022-02-25 00:51:00,,0824.5,5.00,0.00,22.9,22.3,00.0,31.8,24.7,05.6,0001.6,0013.57,0007.95,0007.16
2022-02-25 00:52:00,,0824.6,5.00,0.00,22.9,22.3,00.0,31.8,24.7,05.6,0000.9,0013.03,0007.94,0007.17
2022-02-25 00:53:00,,0824.6,4.99,0.00,22.9,22.2,00.0,31.8,24.7,05.6,0000.6,0013.54,0007.93,0007.17
2022-02-25 00:54:00,,0824.7,5.00,0.00,22.9,22.2,00.0,31.8,24.7,05.6,0000.8,0013.54,0007.94,0007.19
2022-02-25 00:55:00,,0824.6,5.01,0.00,22.9,22.1,00.0,31.8,24.6,05.6,0000.2,0013.56,0007.94,0007.19
2022-02-25 00:56:00,,0824.6,5.01,0.00,22.8,22.0,00.0,31.8,24.6,05.7,0000.2,0013.48,0007.91,0007.20
2022-02-25 00:57:00,,0824.7,5.00,0.00,22.8,22.0,00.0,31.8,24.5,05.7,0000.8,0013.39,0007.88,0007.21
2022-02-25 00:58:00,,0824.7,4.99,0.00,22.7,22.0,00.0,31.8,24.5,05.7,0001.0,0013.63,0007.87,0007.21
2022-02-25 00:59:00,,0824.7,4.99,0.00,22.7,21.9,00.0,31.8,24.4,05.7,0001.5,0013.70,0007.88,0007.21
